NIMBUS 2 DEB, 40648

Orbit data source: Space-Track

NIMBUS 2 DEB, 40648 is space debris in SSO originally from a launch on Sun, 15 May 1966 UTC launched from the Air Force Western Test Range (AFWTR). Debris objects in space refer to the collection of defunct objects orbiting the Earth. Examples of debris include non-operational satellites, rocket bodies, and fragments generated from explosions, collisions, or faulty payload assembly.

Loading next visibility...
Identifier
40648, 1966-040BM
Orbit
SSO
Country
Flag of USUS
Related business
Manufacturer
Unknown
Mission
Spacecraft
Bus & Motor
Unknown
Mass
Unknown
Launch date (UTC)
1966-05-15 (59 years ago)
Launch vehicle
Unknown
Launch site
Air Force Western Test Range (AFWTR)
Object type
Payload
Rocket body
Debris
Shape & HBR
Unknown shape, 0.1 m
Radar Cross Section
Small (<0.1 m²)

Expand to show TLE details & history
Last TLE update: 1 day ago

TLE from 1 day ago
0 NIMBUS 2 DEB
1 40648U 66040BM  25293.41268061  .00004068  00000-0  65822-2 0  9990
2 40648 100.2038 114.0243 0042963 345.0297  14.9561 13.48516452510716
Epoch: 2025-10-20T09:54Z
TLE epoch observation values (Epoch: 2025-10-20T09:54:15.604Z)
Latitude
0.00003°
Longitude
-63.65608°
Altitude
1,049.544 km
Speed
7.342 km/s
True Right ascension
07h 36m 05s
True Declination
0° 00' 00"
Sunlit
Object was in daylight at epoch
Visualization orbit readout
Latitude
Unknown
Longitude
Unknown
Altitude
Unknown
Speed
Unknown
Apparent Right ascension
Unknown
Apparent Declination
Unknown
Sunlit
N/A
Visualization observer readout
Local Sidereal Time
06:33:29
Azimuth
Unknown
Elevation
Unknown
Doppler factor
Unknown
Orbital elements
Apogee altitude
1,107.073 km
Perigee altitude
1,043.03 km
Semi-major axis
7,453.189 km
Eccentricity
0.0043
Inclination
100.2038°
RAAN
114.0243°
Arg. of periapsis
345.0297°
True anomaly
15.08382°
Mean anomaly
14.9561°
Eccentric anomaly
15.01989°
Mean motion
3.37311 °/min
Orbital period
106.73 mins
BSTAR
0.0065822
Loading maneuver chart data...
Computing Atmospheric mass density...
Loading historical data...
Loading historical data...
Loading historical data...
Loading historical data...
Loading historical data...
Loading historical data...
Loading historical data...

Documentation

Showing up to 5 results
|